Date String (YYYY-MM-DD hh:mm:ss) UTC,Instrument flags,Ambient pressure (hPa),Sample flow (lpm),Bypass flow (lpm),Sample temperature (°C),Ambient temperature (°C),ASC tube jacket temperature (°C),LED temperature (°C),Box temperature (°C),Sample RH (%),Span deviation,Mass concentration (μg/m³),Mass concentration (μg/m³),Mass concentration (μg/m³)
DateTimeUTC,F1_M11,P_M11,Q1_M11,Q2_M11,T1_M11,T2_M11,T3_M11,T4_M11,T5_M11,U1_M11,ZSPAN_M11,X2_M11,X0_M11,X1_M11
2023-01-28 13:00:00,,0816.8,5.02,0.00,21.9,20.1,00.0,31.0,23.6,10.9,0000.0,0004.28,0007.62,0004.03
2023-01-28 13:01:00,,0816.9,5.01,0.00,21.9,20.1,00.0,30.9,23.6,10.9,0000.0,0004.30,0007.79,0004.06
2023-01-28 13:02:00,,0816.8,5.00,0.00,21.9,20.0,00.0,30.9,23.6,10.9,0000.0,0004.30,0007.91,0004.08
2023-01-28 13:03:00,,0817.1,5.01,0.00,21.9,20.1,00.0,30.9,23.6,10.9,0000.0,0004.31,0007.92,0004.10
2023-01-28 13:04:00,,0817.1,5.00,0.00,22.0,21.1,00.0,30.8,23.8,10.9,0000.0,0004.31,0008.02,0004.09
2023-01-28 13:05:00,,0816.9,4.98,0.00,22.1,22.2,00.0,30.8,24.1,10.9,0000.0,0004.29,0008.42,0004.07
2023-01-28 13:06:00,,0816.9,4.99,0.00,22.2,22.6,00.0,30.9,24.2,10.8,0000.0,0004.28,0008.43,0004.05
2023-01-28 13:07:00,,0816.9,5.04,0.00,22.2,22.0,00.0,30.9,24.1,10.8,0000.0,0004.27,0008.52,0004.04
2023-01-28 13:08:00,,0816.9,4.97,0.00,22.2,21.5,00.0,31.0,24.0,10.8,0000.0,0004.30,0008.66,0004.05
2023-01-28 13:09:00,,0816.9,4.98,0.00,22.1,21.1,00.0,31.0,23.9,10.8,0000.0,0004.30,0008.76,0004.04
2023-01-28 13:10:00,,0817.0,5.01,0.00,22.1,20.9,00.0,31.0,23.8,10.8,0000.0,0004.29,0008.74,0004.03
2023-01-28 13:11:00,,0817.0,5.00,0.00,22.1,20.6,00.0,31.0,23.7,10.8,0000.0,0004.28,0008.70,0004.04
2023-01-28 13:12:00,,0817.1,4.99,0.00,22.0,20.5,00.0,31.0,23.7,10.9,0000.0,0004.28,0008.64,0004.02
2023-01-28 13:13:00,,0817.1,4.99,0.00,22.0,20.2,00.0,31.0,23.6,10.9,0000.0,0004.24,0008.27,0003.99
2023-01-28 13:14:00,,0817.1,4.98,0.00,21.9,20.0,00.0,30.9,23.5,10.9,0000.0,0004.24,0008.27,0003.98
2023-01-28 13:15:00,,0817.1,5.00,0.00,21.9,19.9,00.0,30.9,23.4,10.9,0000.0,0004.23,0008.17,0003.98
2023-01-28 13:16:00,,0817.2,5.00,0.00,21.8,19.7,00.0,30.9,23.4,10.9,0000.0,0004.20,0007.65,0003.97
2023-01-28 13:17:00,,0817.2,5.01,0.00,21.8,19.9,00.0,30.9,23.3,10.9,0000.0,0004.22,0007.59,0003.97
2023-01-28 13:18:00,,0817.3,5.01,0.00,21.9,21.1,00.0,30.8,23.6,10.9,0000.0,0004.18,0007.44,0003.95
2023-01-28 13:19:00,,0817.3,5.02,0.00,22.0,22.1,00.0,30.8,23.9,10.8,0000.0,0004.14,0007.22,0003.93
2023-01-28 13:20:00,,0817.3,4.98,0.00,22.1,22.3,00.0,30.8,24.0,10.8,0000.0,0004.12,0006.86,0003.93
2023-01-28 13:21:00,,0817.3,5.01,0.00,22.1,21.6,00.0,30.9,23.9,10.8,0000.0,0004.12,0006.96,0003.92
2023-01-28 13:22:00,,0817.3,5.01,0.00,22.0,21.1,00.0,30.9,23.7,10.8,0000.0,0004.13,0007.04,0003.90
2023-01-28 13:23:00,,0817.4,5.01,0.00,22.0,20.7,00.0,30.9,23.6,10.8,0000.0,0004.13,0007.04,0003.90
2023-01-28 13:24:00,,0817.4,4.99,0.00,21.9,20.4,00.0,30.9,23.6,10.8,0000.0,0004.17,0007.23,0003.92
2023-01-28 13:25:00,,0817.5,4.99,0.00,21.9,20.2,00.0,30.9,23.5,10.9,0000.0,0004.16,0007.23,0003.91
2023-01-28 13:26:00,,0817.5,5.00,0.00,21.8,20.0,00.0,30.9,23.3,10.9,0000.0,0004.15,0007.21,0003.91
2023-01-28 13:27:00,,0817.5,5.00,0.00,21.8,19.7,00.0,30.8,23.3,10.9,0000.0,0004.16,0007.41,0003.93
2023-01-28 13:28:00,,0817.6,5.00,0.00,21.7,19.5,00.0,30.8,23.2,10.9,0000.0,0004.15,0007.85,0003.93
2023-01-28 13:29:00,,0817.5,4.98,0.00,21.7,19.5,00.0,30.8,23.2,10.9,0000.0,0004.14,0007.83,0003.95
2023-01-28 13:30:00,,0817.5,5.01,0.00,21.7,20.7,00.0,30.7,23.4,10.9,0000.0,0004.14,0007.83,0003.94
2023-01-28 13:31:00,,0817.5,4.99,0.00,21.8,21.8,00.0,30.7,23.7,10.9,0000.0,0004.14,0007.84,0003.94
2023-01-28 13:32:00,,0817.5,4.98,0.00,21.9,21.8,00.0,30.7,23.8,10.8,0000.0,0004.12,0007.80,0003.94
2023-01-28 13:33:00,,0817.6,5.02,0.00,21.9,21.3,00.0,30.8,23.7,10.8,0000.0,0004.10,0007.78,0003.93
2023-01-28 13:34:00,,0817.6,5.00,0.00,21.9,20.8,00.0,30.8,23.6,10.8,0000.0,0004.07,0007.74,0003.91
2023-01-28 13:35:00,,0817.6,5.02,0.00,21.8,20.4,00.0,30.8,23.5,10.9,0000.0,0004.04,0007.65,0003.90
2023-01-28 13:36:00,,0817.7,4.99,0.00,21.8,20.1,00.0,30.8,23.4,10.9,0000.0,0004.04,0007.61,0003.90
2023-01-28 13:37:00,,0817.7,5.00,0.00,21.8,19.9,00.0,30.7,23.3,10.9,0000.0,0004.04,0007.71,0003.88
2023-01-28 13:38:00,,0817.6,5.01,0.00,21.7,19.7,00.0,30.7,23.3,11.0,0000.0,0004.04,0007.62,0003.87
2023-01-28 13:39:00,,0817.7,5.00,0.00,21.7,19.6,00.0,30.7,23.2,11.0,0000.0,0004.05,0007.80,0003.86
2023-01-28 13:40:00,,0817.6,5.00,0.00,21.6,19.4,00.0,30.7,23.1,11.0,0000.0,0004.06,0007.88,0003.86
2023-01-28 13:41:00,,0817.7,5.06,0.00,21.6,20.3,00.0,30.6,23.3,11.0,0000.0,0004.12,0007.98,0003.87
2023-01-28 13:42:00,,0817.7,5.00,0.00,21.7,21.6,00.0,30.6,23.6,11.0,0000.0,0004.11,0007.96,0003.88
2023-01-28 13:43:00,,0817.8,4.99,0.00,21.8,22.3,00.0,30.6,23.8,10.9,0000.0,0004.09,0007.90,0003.88
2023-01-28 13:44:00,,0817.8,5.00,0.00,21.9,21.8,00.0,30.7,23.8,10.9,0000.0,0004.09,0007.83,0003.89
2023-01-28 13:45:00,,0817.8,5.00,0.00,21.9,21.2,00.0,30.7,23.6,10.9,0000.0,0004.10,0007.83,0003.90
2023-01-28 13:46:00,,0817.9,5.01,0.00,21.8,20.7,00.0,30.7,23.5,10.9,0000.0,0004.10,0007.81,0003.90
2023-01-28 13:47:00,,0818.0,5.00,0.00,21.8,20.4,00.0,30.7,23.4,10.9,0000.0,0004.08,0007.78,0003.88
2023-01-28 13:48:00,,0818.0,4.99,0.00,21.8,20.2,00.0,30.7,23.4,11.0,0000.0,0004.07,0007.71,0003.87
2023-01-28 13:49:00,,0818.0,5.01,0.00,21.7,20.1,00.0,30.7,23.4,11.0,0000.0,0004.06,0007.57,0003.88
2023-01-28 13:50:00,,0818.0,5.00,0.00,21.7,20.1,00.0,30.7,23.4,11.0,0000.0,0004.07,0006.92,0003.88
2023-01-28 13:51:00,,0818.0,5.01,0.00,21.7,20.0,00.0,30.7,23.3,11.0,0000.0,0004.07,0006.91,0003.88
2023-01-28 13:52:00,,0818.0,4.99,0.00,21.7,19.8,00.0,30.7,23.2,11.1,0000.0,0004.02,0006.79,0003.85
2023-01-28 13:53:00,,0818.0,5.06,0.00,21.6,19.7,00.0,30.6,23.2,11.1,0000.0,0004.02,0006.82,0003.83
2023-01-28 13:54:00,,0817.9,4.98,0.00,21.6,20.8,00.0,30.6,23.4,11.1,0000.0,0004.01,0006.84,0003.82
2023-01-28 13:55:00,,0818.0,5.02,0.00,21.8,22.1,00.0,30.6,23.7,11.2,0000.0,0003.99,0006.83,0003.78
2023-01-28 13:56:00,,0818.0,4.99,0.00,21.9,22.5,00.0,30.6,23.9,11.1,0000.0,0003.97,0006.83,0003.75
2023-01-28 13:57:00,,0818.0,5.00,0.00,21.9,21.9,00.0,30.7,23.8,11.1,0000.0,0003.96,0006.86,0003.73
2023-01-28 13:58:00,,0818.1,5.02,0.00,21.9,21.4,00.0,30.7,23.7,11.1,0000.0,0003.95,0006.88,0003.72
2023-01-28 13:59:00,,0818.1,4.99,0.00,21.9,21.0,00.0,30.7,23.6,11.2,0000.0,0003.94,0006.84,0003.70
